TimeIST,TemperatureF,Dew PointF,Humidity,Sea Level PressureIn,VisibilityMPH,Wind Direction,Wind SpeedMPH,Gust SpeedMPH,PrecipitationIn,Events,Conditions,WindDirDegrees,DateUTC
12:10 AM,57.2,42.8,59,29.92,2.5,NNE,3.5,-,N/A,,Haze,30,2012-12-20 18:40:00
12:40 AM,59.0,37.4,45,29.92,2.5,NE,3.5,-,N/A,,Haze,50,2012-12-20 19:10:00
1:10 AM,59.0,37.4,45,29.92,2.5,NE,3.5,-,N/A,,Smoke,50,2012-12-20 19:40:00
1:40 AM,59.0,37.4,45,29.92,2.5,NE,5.8,-,N/A,,Smoke,50,2012-12-20 20:10:00
2:10 AM,57.2,39.2,51,29.92,2.5,NE,5.8,-,N/A,,Smoke,50,2012-12-20 20:40:00
2:30 AM,61,44,41,29.93,2,NE,2.3,,,,,50,2012-12-20 21:00:00
2:40 AM,57.2,37.4,48,29.92,2.5,NE,4.6,-,N/A,,Smoke,40,2012-12-20 21:10:00
3:10 AM,57.2,39.2,51,29.89,2.5,NE,4.6,-,N/A,,Smoke,50,2012-12-20 21:40:00
3:40 AM,57.2,37.4,48,29.89,2.5,NE,3.5,-,N/A,,Smoke,50,2012-12-20 22:10:00
4:10 AM,55.4,37.4,51,29.89,2.5,NE,3.5,-,N/A,,Smoke,50,2012-12-20 22:40:00
4:40 AM,55.4,37.4,51,29.89,2.5,NE,3.5,-,N/A,,Smoke,50,2012-12-20 23:10:00
5:10 AM,55.4,37.4,51,29.89,2.5,NE,3.5,-,N/A,,Smoke,50,2012-12-20 23:40:00
5:30 AM,59,43,43,29.93,2,ENE,4.6,,,,,70,2012-12-21 00:00:00
5:40 AM,55.4,37.4,51,29.89,2.5,NE,3.5,-,N/A,,Smoke,40,2012-12-21 00:10:00
6:10 AM,55.4,37.4,51,29.89,2.5,NE,3.5,-,N/A,,Smoke,40,2012-12-21 00:40:00
7:40 AM,55.4,35.6,47,29.95,1.2,NE,5.8,-,N/A,,Smoke,50,2012-12-21 02:10:00
8:30 AM,62,42,37,29.94,2,NE,5.8,,,,,50,2012-12-21 03:00:00
8:40 AM,60.8,37.4,42,29.95,1.2,ENE,6.9,-,N/A,,Smoke,60,2012-12-21 03:10:00
9:10 AM,64.4,37.4,37,29.95,1.6,ENE,6.9,-,N/A,,Smoke,70,2012-12-21 03:40:00
11:10 AM,75.2,39.2,27,29.95,2.5,ENE,11.5,-,N/A,,Smoke,70,2012-12-21 05:40:00
11:30 AM,76,46,24,29.98,2,East,5.8,,,,,90,2012-12-21 06:00:00
11:40 AM,78.8,42.8,28,29.95,2.5,ENE,9.2,-,N/A,,Smoke,60,2012-12-21 06:10:00
12:40 PM,80.6,44.6,28,29.92,3.1,ENE,8.1,-,N/A,,Smoke,70,2012-12-21 07:10:00
1:10 PM,82.4,44.6,26,29.89,3.1,ENE,9.2,-,N/A,,Smoke,70,2012-12-21 07:40:00
1:40 PM,82.4,46.4,28,29.89,3.7,NE,11.5,-,N/A,,Unknown,40,2012-12-21 08:10:00
2:10 PM,84.2,46.4,27,29.86,3.7,NE,11.5,-,N/A,,Unknown,50,2012-12-21 08:40:00
2:30 PM,82,52,25,29.90,2,NE,5.8,,,,,50,2012-12-21 09:00:00
2:40 PM,84.2,46.4,27,29.86,3.7,NE,11.5,-,N/A,,Unknown,50,2012-12-21 09:10:00
3:10 PM,84.2,46.4,27,29.83,3.7,NE,11.5,-,N/A,,Unknown,40,2012-12-21 09:40:00
4:10 PM,84.2,46.4,27,29.83,3.7,NE,9.2,-,N/A,,Unknown,40,2012-12-21 10:40:00
4:40 PM,84.2,46.4,27,29.83,3.7,ENE,9.2,-,N/A,,Unknown,60,2012-12-21 11:10:00
5:10 PM,82.4,44.6,26,29.83,3.7,ENE,9.2,-,N/A,,Unknown,60,2012-12-21 11:40:00
5:30 PM,81,51,25,29.88,2,NE,4.6,,,,,50,2012-12-21 12:00:00
6:10 PM,77.0,46.4,34,29.86,2.5,ENE,5.8,-,N/A,,Smoke,60,2012-12-21 12:40:00
6:40 PM,73.4,48.2,41,29.86,2.5,ENE,5.8,-,N/A,,Smoke,60,2012-12-21 13:10:00
7:10 PM,73.4,46.4,38,29.89,2.5,ENE,4.6,-,N/A,,Smoke,60,2012-12-21 13:40:00
7:40 PM,69.8,48.2,46,29.89,2.5,NE,4.6,-,N/A,,Smoke,50,2012-12-21 14:10:00
8:10 PM,68.0,46.4,46,29.92,2.5,NE,4.6,-,N/A,,Smoke,50,2012-12-21 14:40:00
8:30 PM,69,53,45,29.93,2,NE,4.6,,,,,50,2012-12-21 15:00:00
8:40 PM,66.2,46.4,49,29.92,2.5,NE,4.6,-,N/A,,Smoke,50,2012-12-21 15:10:00
9:10 PM,66.2,44.6,46,29.92,2.5,NE,5.8,-,N/A,,Smoke,50,2012-12-21 15:40:00
9:40 PM,66.2,44.6,46,29.92,2.5,NE,5.8,-,N/A,,Smoke,40,2012-12-21 16:10:00
10:10 PM,64.4,44.6,49,29.95,2.5,NE,5.8,-,N/A,,Smoke,50,2012-12-21 16:40:00
10:40 PM,66.2,41.0,40,29.95,2.5,NE,5.8,-,N/A,,Smoke,50,2012-12-21 17:10:00
11:10 PM,64.4,39.2,40,29.95,2.5,ENE,5.8,-,N/A,,Smoke,60,2012-12-21 17:40:00
11:30 PM,68,45,32,29.96,2,NE,4.6,,,,,50,2012-12-21 18:00:00
11:40 PM,64.4,37.4,37,29.95,2.5,ENE,5.8,-,N/A,,Smoke,60,2012-12-21 18:10:00